FW8041 Weather Reports


Display with metric or nautical units.
time (UTC)temp
F
wind
direction
speed
MPH
gust
MPH
rain 1hr
in
rain 24hr
in
rain mn
in
humidity
%
barometer
mb
20260906183059 78 342 3.0 6.0 0.00 0.00 0.00 63 1023.2
20260906181554 78 136 2.0 8.0 0.00 0.00 0.00 64 1023.7
20260906180053 76 240 3.0 6.0 0.00 0.00 0.00 67 1023.6
20260906174606 76 138 3.0 7.0 0.00 0.00 0.00 67 1023.7
20260906173114 76 209 3.0 5.0 0.00 0.00 0.00 71 1023.7
20260906171558 75 226 1.0 4.0 0.00 0.00 0.00 70 1023.7
20260906170055 74 86 2.0 8.0 0.00 0.00 0.00 72 1023.8
20260906164601 74 88 2.0 6.0 0.00 0.00 0.00 72 1023.9
20260906163059 73 93 1.0 5.0 0.00 0.00 0.00 72 1023.8
20260906161554 72 338 1.0 7.0 0.00 0.00 0.00 73 1023.9
20260906160052 71 115 2.0 4.0 0.00 0.00 0.00 72 1023.8
20260906154559 71 111 1.0 3.0 0.00 0.01 0.00 74 1024.0
20260906153054 71 0 1.0 3.0 0.00 0.01 0.00 72 1024.0
20260906151559 70 205 0.0 4.0 0.00 0.01 0.00 72 1024.2
20260906150051 70 252 0.0 2.0 0.00 0.01 0.00 73 1024.3
20260906144559 70 130 0.0 2.0 0.00 0.01 0.00 72 1024.2
20260906143057 67 0 0.0 4.0 0.00 0.01 0.00 74 1024.1
20260906141552 66 0 1.0 3.0 0.00 0.01 0.00 75 1024.3
20260906140053 66 103 0.0 3.0 0.00 0.01 0.00 76 1024.5
20260906134556 65 0 0.0 2.0 0.00 0.01 0.00 79 1024.4
20260906133117 64 0 0.0 1.0 0.00 0.01 0.00 86 1024.3
20260906131600 62 103 0.0 2.0 0.00 0.01 0.00 81 1024.1
20260906130111 60 0 0.0 1.0 0.00 0.01 0.00 93 1024.0
20260906124552 58 0 0.0 1.0 0.00 0.01 0.00 95 1024.0
20260906123059 54 0 0.0 0.0 0.00 0.01 0.00 98 1024.0
20260906121555 52 0 0.0 0.0 0.00 0.01 0.00 98 1024.0
20260906120051 50 0 0.0 0.0 0.00 0.01 0.00 98 1023.9
20260906114555 49 0 0.0 0.0 0.00 0.01 0.00 99 1023.6
20260906113101 48 0 0.0 0.0 0.00 0.01 0.00 99 1023.6
20260906111556 48 0 0.0 0.0 0.00 0.01 0.00 99 1023.7
20260906110057 48 0 0.0 0.0 0.00 0.01 0.00 99 1023.5
20260906104600 48 0 0.0 0.0 0.00 0.01 0.00 99 1023.2
20260906103056 49 0 0.0 0.0 0.00 0.01 0.00 99 1023.2
20260906101558 49 0 0.0 0.0 0.00 0.01 0.00 99 1023.4
20260906100058 49 0 0.0 0.0 0.00 0.01 0.00 99 1023.4
20260906094607 49 0 0.0 0.0 0.00 0.01 0.00 99 1023.4
20260906093112 49 0 0.0 0.0 0.00 0.01 0.00 99 1023.2
20260906091600 49 0 0.0 0.0 0.00 0.01 0.00 99 1023.2
20260906090138 49 0 0.0 0.0 0.00 0.01 0.00 98 1023.2
20260906084600 49 0 0.0 0.0 0.00 0.01 0.00 98 1023.0
20260906083100 50 0 0.0 0.0 0.00 0.01 0.00 99 1023.2
20260906081602 50 0 0.0 0.0 0.00 0.01 0.00 99 1022.9
20260906080108 50 0 0.0 1.0 0.00 0.01 0.00 98 1023.1
20260906074600 50 0 0.0 0.0 0.00 0.01 0.00 98 1023.0
20260906073059 50 0 0.0 0.0 0.00 0.01 0.00 98 1023.1
20260906071555 50 0 0.0 0.0 0.00 0.01 0.00 98 1022.9
20260906070055 51 0 0.0 0.0 0.00 0.01 0.00 98 1023.0
20260906064550 51 0 0.0 0.0 0.00 0.01 0.00 98 1022.9
20260906063058 51 0 0.0 0.0 0.00 0.01 0.00 98 1022.9
20260906061603 51 0 0.0 0.0 0.00 0.01 0.00 98 1022.6
20260906060055 51 0 0.0 0.0 0.00 0.01 0.00 98 1022.6
20260906054604 51 0 0.0 0.0 0.00 0.01 0.00 97 1022.3
20260906053107 52 0 0.0 0.0 0.00 0.01 0.00 98 1022.3
20260906051554 52 0 0.0 0.0 0.00 0.01 0.00 97 1022.4
20260906050104 52 0 0.0 0.0 0.00 0.01 0.00 97 1022.3
20260906044606 53 0 0.0 0.0 0.00 0.01 0.00 97 1022.2
20260906043053 53 0 0.0 0.0 0.00 0.01 0.00 97 1022.2
20260906041604 53 0 0.0 0.0 0.00 0.01 0.00 96 1022.2
20260906040101 54 0 0.0 0.0 0.00 0.01 0.00 96 1022.2
20260906034600 54 0 0.0 0.0 0.00 0.01 0.01 96 1022.1
20260906033052 55 0 0.0 0.0 0.00 0.01 0.01 95 1022.0
20260906031600 55 0 0.0 0.0 0.00 0.01 0.01 95 1022.1
20260906030056 56 0 0.0 0.0 0.00 0.01 0.01 93 1022.2
20260906024609 57 0 0.0 0.0 0.00 0.01 0.01 92 1022.1
20260906023104 58 0 0.0 1.0 0.00 0.01 0.01 90 1021.9
20260906021557 58 103 0.0 1.0 0.00 0.01 0.01 90 1021.8
20260906020101 59 0 0.0 1.0 0.00 0.01 0.01 89 1021.7
20260906014554 59 0 0.0 1.0 0.00 0.01 0.01 88 1021.5
20260906013055 60 0 0.0 1.0 0.00 0.01 0.01 86 1021.6
20260906011602 61 0 0.0 1.0 0.00 0.01 0.01 84 1021.6
20260906010131 63 122 0.0 3.0 0.00 0.01 0.01 82 1021.5
20260906004604 64 98 2.0 4.0 0.00 0.01 0.01 81 1021.4
20260906003057 65 85 1.0 5.0 0.00 0.01 0.01 79 1021.4
20260906001605 66 103 1.0 3.0 0.00 0.01 0.01 77 1021.3
20260906000104 68 92 2.0 8.0 0.00 0.01 0.01 73 1021.2
20260905234558 69 84 3.0 10.0 0.00 0.01 0.01 71 1021.2
20260905233057 71 88 3.0 8.0 0.00 0.01 0.01 68 1021.1
20260905231553 72 102 3.0 7.0 0.00 0.01 0.01 68 1020.9
20260905230113 73 100 4.0 9.0 0.00 0.01 0.01 67 1021.0
20260905224601 74 104 4.0 10.0 0.00 0.02 0.01 66 1020.9
20260905223101 75 90 2.0 4.0 0.00 0.02 0.01 66 1020.7
20260905221556 73 84 0.0 1.0 0.00 0.02 0.01 70 1020.8
20260905220104 74 94 0.0 1.0 0.00 0.02 0.01 70 1021.0
20260905214600 77 94 0.0 2.0 0.00 0.02 0.01 61 1020.8
20260905213058 78 39 3.0 9.0 0.00 0.02 0.01 61 1021.0
20260905211555 77 87 1.0 4.0 0.00 0.02 0.01 58 1020.8
20260905210104 77 173 0.0 3.0 0.00 0.02 0.01 62 1020.7
20260905204610 75 102 2.0 4.0 0.00 0.02 0.01 66 1020.7
20260905203101 76 20 2.0 10.0 0.00 0.02 0.01 60 1020.5
20260905201603 76 209 1.0 6.0 0.00 0.02 0.01 61 1020.6
20260905200056 76 140 2.0 4.0 0.00 0.02 0.01 63 1020.8
20260905194558 76 108 3.0 7.0 0.00 0.02 0.01 63 1021.0
20260905193059 75 0 1.0 3.0 0.00 0.02 0.01 63 1021.0
20260905191555 75 109 0.0 4.0 0.00 0.02 0.01 67 1021.1
20260905184613 73 92 3.0 6.0 0.00 0.02 0.01 68 1021.2